Regional Weather Roundup
Issued by NWS

Home | Current Version | Previous Version | Text Only | Print | Product List | Glossary Off
Versions: 1 2 3 4 5 6 7 8 9 10 11 12 13 14 15 16 17 18 19 20 21 22 23 24 25 26 27 28 29 30 31 32 33 34 35 36 37 38 39 40 41 42 43 44 45 46 47 48 49 50

000
ASUS43 KFSD 051402
RWRSD

WEATHER ROUNDUP FOR SOUTH DAKOTA
NATIONAL WEATHER SERVICE SIOUX FALLS SD
800 AM CST THU MAR 05 2015

NOTE: "FAIR" INDICATES FEW OR NO CLOUDS BELOW 12,000 FEET WITH NO
SIGNIFICANT WEATHER AND/OR OBSTRUCTIONS TO VISIBILITY.


SDZ001>005-009-010-012>017-051500-
NORTHWEST AND NORTH CENTRAL SOUTH DAKOTA

CITY           SKY/WX    TMP DP  RH WIND       PRES   REMARKS
BUFFALO          N/A      5  -3  69 CALM      30.00S
FAITH            N/A      2  -4  76 S14       30.14S WCI -16
MOBRIDGE       PTCLDY     1  -6  72 SE13      30.21F WCI -17
$$

SDZ012>016-024>037-041>051-057-063-072>074-051500-
SOUTHWEST AND SOUTH CENTRAL SOUTH DAKOTA

CITY           SKY/WX    TMP DP  RH WIND       PRES   REMARKS
RAPID CTY ARPT CLEAR      4  -1  80 CALM      30.13S
PIERRE         PTCLDY    -5  -8  87 E5        30.28F WCI -16
CUSTER         PTCLDY    18  -4  37 W12       30.02S WCI   5
ELLSWORTH AFB  PTCLDY     6  -1  73 W7        30.10F WCI  -6
PHILIP         PTCLDY    -5 -12  72 CALM      30.23F
PINE RIDGE     PTCLDY    -3  -9  75 CALM      30.17F
SPEARFISH      FAIR      23   1  39 MISG      30.08S
WINNER         FAIR       9  -2  61 S12       30.29F WCI  -6
$$

SDZ004>011-016>023-039-040-051500-
NORTHEAST SOUTH DAKOTA

CITY           SKY/WX    TMP DP  RH WIND       PRES   REMARKS
ABERDEEN       PTCLDY   -12 -19  71 S9        30.36F WCI -30
WATERTOWN      PTCLDY   -12 -17  78 S6        30.36S WCI -26
SISSETON         N/A     -3 -11  68 SW8       30.39S WCI -18
$$

SDZ017-020-022-023-036>040-048>070-051500-
SOUTHEAST SOUTH DAKOTA

CITY           SKY/WX    TMP DP  RH WIND       PRES   REMARKS
SIOUX FALLS    MOSUNNY   -4  -8  83 CALM      30.45S
HURON          PTCLDY    -5 -11  75 S12       30.40F WCI -23
MITCHELL       PTCLDY    -2  -8  76 SE10      30.43F WCI -19
YANKTON        FAIR      -2  -4  92 CALM      30.49R
$$

ABBREVIATIONS USED IN REMARKS
   TC - TEMPERATURE IN CELSIUS
  WCI - WIND CHILL INDEX
   HX - HEAT INDEX
  VSB - VISIBILITY




USA.gov is the U.S. government's official web portal to all federal, state and local government web resources and services.